Flag for U.S.A. Weather past 2 weeks in Davis, California, U.S.A.

Now
46 °F

Clear.


Feels Like: 46 °F
Forecast: 47 / 78 °F
Wind: No wind

Location: Sacramento International Airport

Current Time: Apr 26, 2015 at 5:32:04 AM

Latest Report: Apr 26, 2015 at 4:53 AM


Visibility: 10 mi

Pressure: 30.03 "Hg

Humidity: 93%

Dew point: 44 °F

Location of DavisLocation

Historic Weather in Davis — Graph

°F

Davis temperature yesterday

Maximum temperature yesterday: 71 °F (at 4:53 PM)
Minimum temperature yesterday: 52 °F (at 1:53 AM)
Average temperature yesterday: 60 °F

Past Weeks' High & Low Weather Summary

 TemperatureHumidityPressure
High87 °F (Apr 19, 3:53 PM)93% (Apr 25, 12:53 AM)30.34 "Hg (Apr 25, 12:53 AM)
Low39 °F (Apr 14, 6:53 AM)11% (Apr 16, 3:53 PM)29.71 "Hg (Apr 23, 6:53 PM)
Average62 °F54%29.94 "Hg
* Reported Apr 11 3:53 AM — Apr 26 3:53 AM, Davis, Weather by CustomWeather, © 2015

Note: Actual official high and low records may vary slightly from our data, if they occured in-between our weather recording intervals... More about our weather records

Advertising

Davis weather history for previous 24 hours

 ConditionsComfort  
Time TempWeatherWind HumidityBarometerVisibility
3:53 AM
Sun, Apr 26
51 °FClear.No wind83%30.01 "Hg10 mi
2:53 AM52 °FClear.6 mph80%30.00 "Hg10 mi
1:53 AM52 °FClear.6 mph83%30.00 "Hg10 mi
12:53 AM53 °FClear.8 mph80%29.99 "Hg10 mi
11:53 PM
Sat, Apr 25
54 °FClear.7 mph77%29.98 "Hg10 mi
10:53 PM55 °FClear.7 mph77%29.97 "Hg10 mi
9:53 PM57 °FClear.9 mph72%29.96 "Hg10 mi
8:53 PM61 °FPassing clouds.9 mph62%29.94 "Hg10 mi
7:53 PM64 °FScattered clouds.9 mph58%29.92 "Hg10 mi
6:53 PM66 °FScattered clouds.10 mph54%29.91 "Hg10 mi
5:53 PM70 °FScattered clouds.5 mph35%29.90 "Hg10 mi
4:53 PM71 °FScattered clouds.5 mph34%29.90 "Hg10 mi
3:53 PM70 °FScattered clouds.9 mph37%29.90 "Hg10 mi
2:53 PM69 °FScattered clouds.7 mph44%29.91 "Hg10 mi
1:53 PM66 °FPartly sunny.No wind49%29.92 "Hg10 mi
12:53 PM65 °FBroken clouds.8 mph56%29.92 "Hg10 mi
11:53 AM63 °FScattered clouds.6 mph60%29.93 "Hg10 mi
10:53 AM59 °FBroken clouds.3 mph75%29.94 "Hg10 mi
9:53 AM55 °FLow clouds.6 mph87%29.92 "Hg10 mi
8:53 AM55 °FLow clouds.7 mph93%29.91 "Hg9 mi
7:53 AM56 °FSunny.7 mph81%29.88 "Hg10 mi
6:53 AM52 °FPassing clouds.6 mph89%29.86 "Hg10 mi
5:53 AM53 °FPassing clouds.7 mph89%29.85 "Hg10 mi
Weather by CustomWeather, © 2015

See weather overviewHow to use our weather pages